Regional Weather Roundup
Issued by NWS

Home | Current Version | Previous Version | Graphics & Text | Print | Product List | Glossary On
Versions: 1 2 3 4 5 6 7 8 9 10 11 12 13 14 15 16 17 18 19 20 21 22 23 24 25 26 27 28 29 30 31 32 33 34 35 36 37 38 39 40 41 42 43 44 45 46 47 48 49 50
226
ASUS43 KDMX 261703
RWRIA

WEATHER ROUNDUP FOR IOWA
NATIONAL WEATHER SERVICE DES MOINES IA
1200 PM CDT THU MAY 26 2016

NOTE: "FAIR" INDICATES FEW OR NO CLOUDS BELOW 12,000 FEET WITH NO
SIGNIFICANT WEATHER AND/OR OBSTRUCTIONS TO VISIBILITY.

* - THESE STATIONS ARE NOT NWS STATIONS...THUS NOT UNDER NWS
QUALITY CONTROL.  THEY ALSO DO NOT REPORT WEATHER SUCH
AS PRECIPITATION OR FOG.

IAZ001>003-012>014-020>022-031>034-043>046-261800-
   NORTHWEST IOWA

CITY           SKY/WX    TMP DP  RH WIND       PRES   REMARKS
CARROLL *      SUNNY     77  57  50 CALM      29.88F
CHEROKEE *     SUNNY     72  60  67 W3        29.90R
DENISON *      MOSUNNY   75  57  53 S3        29.86F
LE MARS *      MOSUNNY   72  57  60 N5        29.90R
ORANGE CITY *  SUNNY     72  54  53 N6        29.89S
SHELDON *      PTSUNNY   72  54  53 NW3       29.88R
SIOUX CITY     PTSUNNY   74  61  63 S5        29.90R
SPENCER        SUNNY     71  56  58 NW7       29.89S
STORM LAKE *   SUNNY     72  61  68 VRB7      29.90S
$$

IAZ055>058-069>071-079>083-090>094-261800-
   SOUTHWEST IOWA

CITY           SKY/WX    TMP DP  RH WIND       PRES   REMARKS
ATLANTIC *     MOSUNNY   79  57  47 CALM      29.87S HX  80
AUDUBON *        N/A     77  64  65 CALM      29.89F
CLARINDA *       N/A     81  68  65 MISG      29.87F HX  83
COUNCIL BLFS * SUNNY     79  59  50 E7        29.87S HX  80
CRESTON *      SUNNY     79  66  65 SE12      29.91R HX  81
HARLAN  *      SUNNY     77  61  57 VRB5      29.91S
LAMONI         CLOUDY    74  65  73 SE6       29.89F
RED OAK *      MOSUNNY   79  68  69 SE9       29.86F HX  81
SHENANDOAH *   MOSUNNY   81  66  61 SE10G16   29.85F HX  83
$$

IAZ047>049-059>061-072>074-084-261800-
   CENTRAL IOWA

CITY           SKY/WX    TMP DP  RH WIND       PRES   REMARKS
AMES           SUNNY     76  65  68 S8        29.88F
ANKENY *       SUNNY     75  66  73 S8        29.88S
BOONE *        SUNNY     75  63  64 S6        29.88F
CHARITON *     CLOUDY    75  66  73 SE8       29.90R
DES MOINES     MOSUNNY   77  63  61 S9        29.89S
GRINNELL*      SUNNY     73  63  68 SE8       29.91S
KNOXVILLE *    CLOUDY    75  64  69 SE9       29.88F
NEWTON *       SUNNY     73  64  73 SE13      29.89S
PERRY *          N/A     75  66  73 SE7       29.89S
$$

IAZ004>006-015-016-023>025-035-036-261800-
   NORTH CENTRAL IOWA

CITY           SKY/WX    TMP DP  RH WIND       PRES   REMARKS
ALGONA *       SUNNY     73  57  56 VRB5G12   29.89R
CLARION *      SUNNY     73  61  64 SW5       29.89S
ESTHERVILLE    SUNNY     72  56  57 W9        29.88R
FORT DODGE *   SUNNY     75  61  60 SW5       29.89S
MASON CITY     SUNNY     74  61  63 SW10      29.90R
FOREST CITY *  SUNNY     72  59  64 SW8       29.88S
WEBSTER CITY * SUNNY     75  63  64 S7        29.87S
IOWA FALLS *     N/A     75  63  64 S8        29.90F
$$

IAZ007>011-017>019-026>030-037>042-050>054-066-261800-
   NORTHEAST IOWA

CITY           SKY/WX    TMP DP  RH WIND       PRES   REMARKS
CEDAR RAPIDS   SUNNY     75  62  64 S6        29.89F
CHARLES CITY * MOSUNNY   75  64  69 SW13      29.89S
CLINTON *      MOSUNNY   75  65  70 SW8       29.90F
DECORAH *      SUNNY     73  61  64 SW9G16    29.88S
DUBUQUE        SUNNY     76  59  55 SW10      29.90F
MONTICELLO *   SUNNY     79  57  47 S9G15     29.89F HX  80
OELWEIN *      SUNNY     73  64  73 S12       29.90F
WATERLOO       SUNNY     75  60  59 S6        29.88F
$$

IAZ064-065-067-068-078-261800-
   EAST CENTRAL IOWA

CITY           SKY/WX    TMP DP  RH WIND       PRES   REMARKS
DAVENPORT      SUNNY     77  66  68 S7        29.90F
IOWA CITY      CLOUDY    77  60  55 VRB3      29.90F
MT. PLEASANT * PTSUNNY   82  68  61 S8        29.90F HX  85
MUSCATINE *    SUNNY     81  64  57 VRB5G12   29.89F HX  82
QUAD CITIES    CLOUDY    82  65  56 S9G18     29.88F HX  84
$$

IAZ062-063-075>077-085>089-095>099-261800-
   SOUTHEAST IOWA

CITY           SKY/WX    TMP DP  RH WIND       PRES   REMARKS
BURLINGTON     CLOUDY    78  68  71 S10       29.90F HX  80
FAIRFIELD *      N/A    N/A N/A N/A MISG        N/A
FORT MADISON * CLOUDY    79  70  73 SE8       29.90F HX  81
KEOKUK *       MOSUNNY   79  66  65 E8        29.89F HX  81
OSKALOOSA *      N/A     75  64  69 S6        29.90F
OTTUMWA        CLOUDY    76  65  68 S7        29.89F
WASHINGTON *   SUNNY     79  75  89 S9        29.91S HX  82
$$

ABBREVIATIONS USED IN REMARKS
   TC - TEMPERATURES IN CELSIUS
  WCI - WIND CHILL INDEX
   HX - HEAT INDEX
  VSB - VISIBILITY
$$





USA.gov is the U.S. government's official web portal to all federal, state and local government web resources and services.